EHI
0 0 0 0 0 0 0 0 0 1 5 7 10 13 16 19 22 28 37 46 49 46 43 42 40 41 45 46 42 39 35 33 36 38 36 34 33 29 23 19 18 20 20 18
0 0 0 0 0 0 0 0 0 2 5 9 14 19 22 23 25 30 37 44 48 46 44 42 39 40 43 44 41 37 34 33 34 36 36 34 32 27 21 18 17 17 18 18
0 0 0 0 0 0 1 2 3 5 7 11 17 23 26 26 27 31 36 41 45 45 45 42 38 39 42 40 38 35 32 29 29 31 33 32 28 24 20 17 15 14 14 14
0 0 0 0 1 2 4 6 8 9 11 12 15 20 22 22 23 27 33 39 42 43 43 41 38 39 41 38 34 33 30 25 23 25 27 27 25 24 22 18 15 12 10 9
0 0 0 1 3 4 5 8 11 13 13 12 12 14 16 16 18 23 31 36 37 38 40 41 39 39 41 39 34 30 27 23 21 21 22 23 25 27 26 21 14 11 10 9
0 0 0 0 2 3 5 8 12 14 15 13 12 14 15 16 18 23 28 31 32 33 37 39 40 39 38 36 33 29 25 23 22 21 22 23 27 30 29 22 15 12 11 12
0 0 0 0 1 4 7 10 14 16 17 17 18 19 20 21 21 23 27 29 29 30 33 36 37 37 34 31 30 27 25 25 24 23 22 22 25 28 26 20 14 12 11 11
0 1 1 2 4 7 11 13 15 17 18 18 19 19 19 20 19 20 24 27 27 28 30 32 33 32 30 29 29 28 26 25 25 23 20 20 22 22 20 17 13 11 11 10
1 3 4 5 7 10 11 12 13 14 14 12 12 13 14 16 16 17 19 21 23 25 26 27 28 28 28 30 30 29 28 27 24 21 19 19 20 19 17 14 10 9 11 11
4 4 6 7 8 9 9 9 8 8 8 7 8 11 13 14 15 15 16 17 19 21 22 22 23 25 27 29 30 29 28 26 23 20 19 19 19 17 14 10 8 8 10 11
6 6 5 5 5 6 6 6 5 5 6 7 8 11 13 12 13 15 16 16 17 18 19 20 21 22 24 27 28 27 25 22 19 17 15 15 15 13 9 5 4 6 7 8
6 6 5 4 3 3 3 5 5 5 6 7 9 11 13 12 12 13 13 13 15 16 18 19 20 21 22 23 24 23 21 18 14 12 11 11 11 9 6 3 2 2 2 2
6 6 5 3 2 2 2 4 5 6 6 7 8 11 12 12 11 10 8 9 12 14 16 18 18 18 18 19 20 19 16 14 10 8 9 9 10 8 5 3 2 1 0 0
6 6 5 4 3 2 1 2 3 5 6 6 8 10 11 11 10 7 5 6 10 13 14 15 15 13 13 15 18 17 14 11 8 8 9 10 10 8 6 5 4 3 1 0
3 3 3 3 2 1 0 0 1 2 5 6 7 8 8 9 9 6 4 5 9 12 13 13 12 11 12 14 17 17 13 9 8 8 9 9 9 8 6 5 5 4 2 1
1 1 1 1 0 0 0 0 0 1 4 8 9 8 8 9 10 7 4 5 9 12 12 13 13 13 14 15 16 15 12 8 7 7 7 8 8 7 6 6 5 3 1 0
0 0 0 0 0 0 0 0 0 2 4 7 9 10 9 8 9 8 5 5 9 13 15 16 16 15 15 15 14 13 11 8 6 6 6 6 5 5 6 5 3 1 0 0
0 0 0 0 0 0 0 0 0 1 3 5 7 10 9 8 7 7 5 6 10 14 17 18 16 14 13 12 11 10 9 8 7 6 5 4 4 4 4 2 1 0 0 0
0 0 0 0 0 0 0 1 1 1 2 4 6 9 8 7 6 7 8 10 12 13 13 14 12 11 9 8 7 7 6 6 6 6 5 4 4 3 2 1 0 0 0 0
0 0 0 0 0 0 0 1 1 2 3 4 6 8 8 7 6 7 10 11 11 10 9 9 9 9 7 5 4 4 4 5 6 6 5 4 3 1 1 0 0 0 0 0
1 0 0 0 0 0 0 1 1 2 3 4 6 7 7 7 6 6 7 7 7 6 6 7 8 8 6 4 3 3 4 5 5 5 4 3 2 1 0 0 0 0 0 0
2 1 1 1 1 0 0 1 1 3 3 4 5 5 5 6 6 4 3 3 4 4 4 5 5 4 3 3 3 3 4 4 3 2 3 3 2 0 0 0 0 0 0 0
4 3 3 2 1 1 1 2 3 3 3 4 5 4 4 4 4 3 2 2 2 2 2 3 2 1 1 2 3 3 2 2 1 1 2 2 1 1 0 0 0 1 1 0
5 5 4 3 1 1 3 3 3 3 4 4 3 3 3 3 3 2 1 1 1 1 1 1 0 0 1 3 3 2 1 0 0 0 1 1 1 2 1 1 1 1 1 1
5 4 3 3 2 3 4 4 3 3 3 3 1 1 2 2 2 1 1 0 0 0 0 0 0 1 2 4 4 2 1 0 0 0 1 2 2 3 3 2 1 1 1 0
4 3 2 3 3 3 3 3 3 3 2 1 0 0 1 1 1 1 1 1 0 0 0 1 1 1 2 3 3 3 2 1 1 1 2 3 3 3 3 2 1 0 0 0
4 3 3 3 2 2 3 3 3 2 1 0 0 0 0 0 0 1 2 2 1 0 1 2 2 1 1 2 3 3 3 2 2 1 3 4 4 3 2 1 0 0 0 0
Wind_Speed
13 12 10 11 12 12 13 12 10 8 6 2 1 1 2 3 3 5 6 6 5 5 4 4 4 4 4 4 4 4 4 3 3 3 3 3 2 2 2 2 2 1 1 1
14 14 12 13 13 13 13 12 12 9 5 1 3 2 3 3 3 3 3 4 5 4 5 4 4 4 4 3 4 4 3 3 3 3 3 3 2 2 2 2 1 1 1 1
12 13 12 14 11 11 10 9 8 7 3 1 3 3 3 2 2 2 2 3 3 3 3 4 3 3 3 4 4 3 3 3 3 4 4 3 3 3 2 2 1 1 1 1
10 11 13 7 5 6 6 6 6 4 2 1 2 3 3 3 3 3 2 2 2 2 2 3 3 3 2 3 4 3 3 3 3 4 4 3 2 2 2 2 1 1 1 1
8 10 10 5 3 4 6 5 4 2 1 1 1 2 3 4 4 4 4 3 3 2 2 2 3 3 3 3 3 3 3 3 3 3 3 3 3 2 2 2 2 2 1 1
8 10 8 5 4 5 5 5 0 1 1 0 2 2 2 5 5 5 4 3 2 2 2 2 2 2 3 3 3 3 3 3 3 2 3 3 3 2 2 2 2 2 2 2
11 10 6 4 5 5 6 1 3 2 1 1 2 2 3 4 5 5 4 3 2 2 2 1 2 2 2 2 2 2 2 2 2 2 2 2 2 2 2 3 3 2 2 2
9 9 6 3 4 2 3 3 3 3 3 3 2 3 3 4 3 4 3 2 2 2 2 1 2 2 2 2 1 1 1 2 2 2 2 2 2 2 2 3 3 3 3 3
3 3 2 4 4 4 3 3 3 2 2 2 1 3 3 3 3 3 2 2 1 2 1 1 1 2 2 1 1 1 1 1 2 2 2 2 2 3 3 3 3 3 3 3
3 1 2 4 4 4 2 1 1 1 1 0 1 2 2 2 2 2 2 1 1 1 1 0 0 1 0 0 1 1 1 1 2 2 2 2 2 2 2 2 2 2 2 2
4 3 3 3 4 3 2 3 2 1 1 1 1 1 1 1 1 1 1 1 0 0 1 1 1 1 0 0 1 1 2 2 2 2 2 1 1 1 1 0 0 1 1 0
3 2 3 4 3 3 3 3 2 1 1 1 1 2 1 1 1 1 1 1 0 0 1 1 1 1 0 0 1 1 1 2 2 2 2 2 2 1 3 2 2 3 2 2
3 3 4 4 4 3 2 3 3 1 0 1 1 1 1 1 1 1 1 1 1 1 2 2 1 1 1 1 1 1 2 2 2 2 2 3 3 3 2 1 2 3 2 3
3 2 3 4 3 2 2 4 3 1 1 1 1 1 1 1 1 1 1 1 2 2 2 2 2 2 2 1 1 2 3 2 2 2 3 3 3 3 3 3 2 1 2 3
3 3 3 3 3 1 0 2 3 2 1 1 2 2 1 1 1 1 1 2 2 2 3 3 2 2 2 2 2 2 2 2 2 2 2 2 3 3 2 2 2 2 2 2
3 3 3 2 2 2 2 2 2 2 2 1 1 1 1 2 1 1 2 2 2 2 2 2 2 2 2 2 2 2 2 3 2 2 3 2 2 2 1 1 1 1 2 2
3 3 3 3 2 2 2 3 2 2 2 0 0 1 2 2 2 1 2 2 1 1 1 1 1 2 2 2 2 1 1 2 2 2 3 2 2 1 1 1 1 1 1 2
3 4 4 3 3 3 2 2 2 2 2 1 0 1 1 2 1 1 1 1 1 1 1 0 1 1 2 2 2 2 1 1 1 2 2 1 1 1 1 1 1 1 1 2
4 4 3 2 3 3 3 2 2 2 1 1 0 1 1 1 1 0 1 1 1 1 0 0 0 2 1 0 1 2 2 2 2 2 2 1 2 2 2 2 1 1 0 1
3 3 3 3 3 2 3 2 1 1 0 1 1 1 1 1 1 1 1 0 1 1 1 1 1 2 2 1 2 3 2 2 3 2 2 2 3 2 1 1 1 1 1 0
2 3 3 3 3 2 2 1 1 1 0 1 1 1 1 1 1 1 1 1 2 2 2 1 1 0 1 1 3 3 3 2 2 2 2 2 2 1 1 1 1 0 0 0
2 3 3 2 2 1 1 1 1 1 1 0 0 1 1 1 1 1 1 1 1 2 2 1 0 1 2 4 3 3 2 2 2 2 2 2 2 1 1 1 1 1 0 0
3 3 3 2 1 1 1 1 1 1 1 0 0 0 1 1 1 1 1 1 1 1 2 1 2 2 3 3 3 3 2 2 2 2 1 2 2 1 1 1 1 0 0 0
3 3 3 2 2 1 1 0 1 1 1 1 1 0 0 0 0 1 2 2 2 1 1 1 1 1 3 3 3 3 3 3 2 2 2 2 1 0 0 0 0 0 0 1
2 2 2 2 2 1 1 1 1 2 1 1 1 1 1 1 1 1 1 2 2 1 1 0 2 2 3 3 3 3 2 2 2 2 1 1 1 0 0 1 1 1 1 1
2 1 1 1 1 1 1 1 1 0 0 0 1 2 1 1 1 1 1 1 1 1 1 1 1 2 3 2 2 2 2 1 1 1 1 0 1 2 2 3 3 2 2 2
2 1 1 1 1 1 1 1 1 1 0 0 1 1 1 1 1 1 1 1 1 1 1 1 2 2 1 1 1 1 2 2 1 1 1 1 2 2 2 3 3 3 3 3
Wind_Direction
266 271 267 247 241 238 243 250 255 253 236 209 155 14 69 97 101 122 124 129 131 132 130 134 133 137 142 143 137 131 137 143 144 151 163 162 161 158 160 174 173 173 174 190
262 257 259 257 247 239 242 247 251 255 252 158 108 70 56 61 82 85 111 130 138 142 141 144 146 147 147 150 141 142 151 151 148 155 149 151 157 156 163 168 158 161 169 152
260 254 250 247 245 241 243 251 257 256 252 153 93 85 71 52 83 80 101 110 124 142 145 153 156 151 161 153 148 152 154 156 162 159 150 153 165 154 155 154 160 175 170 137
261 259 248 241 246 251 250 264 266 255 243 172 106 89 70 57 56 58 71 81 90 96 131 143 145 154 161 164 160 160 160 163 175 169 155 153 152 157 161 164 185 197 188 158
259 255 247 254 279 266 245 259 292 264 310 56 87 129 106 66 50 64 72 76 91 100 111 134 148 159 163 168 168 170 173 180 185 172 159 159 153 158 163 181 197 200 169 178
254 259 248 255 282 289 253 229 270 69 86 342 281 235 78 48 46 47 59 64 85 114 121 134 149 156 165 175 182 190 192 190 182 174 167 162 157 174 185 200 206 208 183 181
248 257 258 299 312 292 244 239 5 11 45 14 352 1 53 43 48 50 59 64 77 96 116 128 143 148 166 179 197 206 196 180 163 162 167 168 170 184 195 208 211 209 200 194
241 248 250 325 307 331 30 40 28 41 45 50 48 75 73 56 52 60 55 55 91 106 115 126 154 163 174 188 197 201 186 181 164 175 201 170 168 193 206 210 218 211 208 212
263 268 18 23 31 19 38 38 32 41 46 53 36 82 81 72 59 60 58 44 92 121 127 125 166 170 181 187 185 188 182 182 181 194 203 175 195 212 218 216 228 227 212 211
279 280 335 358 12 355 14 0 336 7 49 351 58 81 76 73 65 57 45 37 78 142 151 140 178 171 185 180 177 179 187 199 205 204 203 199 222 226 220 216 223 231 226 218
265 296 304 287 301 320 347 351 348 313 117 98 101 108 87 86 85 76 50 36 42 199 184 204 201 181 212 205 185 213 214 222 225 218 201 198 208 270 249 83 214 242 267 182
281 325 294 298 316 332 343 326 311 331 67 98 134 128 113 92 83 91 86 67 61 250 224 225 218 200 193 170 180 208 219 228 227 214 201 208 189 163 51 67 81 84 85 104
291 300 296 293 299 321 326 317 317 338 327 202 162 148 149 131 138 158 171 175 183 235 240 223 213 208 214 194 209 229 245 243 246 235 216 219 211 192 175 103 73 85 105 116
322 321 303 299 304 329 324 307 294 281 245 203 181 168 159 153 198 222 228 220 216 228 237 221 207 216 222 206 208 237 247 234 254 252 236 229 222 215 207 184 173 161 160 166
326 310 292 296 303 307 287 271 271 263 240 204 205 185 181 194 207 231 244 240 230 229 224 221 218 229 232 231 222 225 235 236 245 269 265 247 234 226 218 197 182 166 146 140
299 302 298 292 309 310 289 282 286 293 290 246 222 186 198 201 194 199 226 234 237 237 228 223 223 232 232 225 233 233 232 253 249 265 266 260 253 252 242 181 176 165 156 144
290 291 293 289 289 301 317 318 322 331 316 211 159 200 197 199 188 199 233 229 222 219 215 220 226 232 230 223 230 233 239 233 227 254 266 271 262 259 244 214 219 207 160 154
272 273 271 258 268 274 281 296 321 341 351 41 61 157 185 183 170 194 237 227 204 181 147 184 262 250 224 216 231 235 235 243 230 251 270 280 279 271 243 232 229 221 167 151
276 271 264 259 271 279 285 288 311 329 345 41 62 62 61 81 98 174 259 224 188 165 158 135 265 274 270 235 264 244 239 234 235 252 260 251 250 250 243 243 240 232 205 163
272 275 275 265 260 252 254 253 258 271 298 91 77 68 48 47 54 351 310 286 57 15 1 40 192 221 239 229 265 246 235 238 241 236 238 231 233 236 239 258 256 232 242 214
290 285 276 261 241 226 229 231 232 276 338 105 104 85 55 28 43 8 333 5 65 47 355 284 234 261 279 307 256 247 235 229 235 231 245 254 247 232 250 275 283 276 20 89
305 294 288 269 235 218 207 196 187 158 118 107 108 31 2 337 359 31 23 25 65 40 318 276 76 31 342 307 264 261 266 258 242 230 220 230 229 215 219 262 274 294 28 41
326 318 310 310 297 245 206 188 170 152 152 168 48 345 342 349 350 2 33 58 61 39 306 331 47 10 327 285 270 264 258 254 256 258 251 241 228 223 213 221 247 349 9 354
323 321 311 304 280 245 207 179 186 185 191 198 230 207 192 264 59 44 46 66 71 93 319 14 157 254 276 268 266 266 262 260 254 266 266 260 248 266 275 233 111 60 28 355
290 291 304 307 285 249 166 195 205 199 198 195 178 128 108 88 72 49 39 45 68 63 322 340 189 241 272 287 285 281 276 279 282 281 272 277 272 232 73 57 50 41 23 25
296 291 294 302 318 314 279 260 257 254 205 104 88 83 75 74 81 88 75 59 49 50 337 340 323 260 279 301 307 308 307 299 269 268 291 4 47 47 55 56 52 44 43 46
271 255 239 268 279 289 285 288 301 318 356 82 80 74 57 59 63 51 28 24 24 359 341 335 320 316 316 314 319 330 329 322 331 16 30 52 61 62 60 59 58 56 49 51